Sant Sadurní d´Osormort





Hora UTC 11:25
Temperatura 6.4 ºC
Humitat 86.0 %
Pressió 1024.3 hPa
Pluja 0.0 mm
Velocitat vent 0.0 km/h
Direcció vent N

Dades diàries 2021-01-17



Hora UTC (hivern +1h; estiu +2h)
Temperatura (ºC) Humitat (%) Pressió (hPa) Velocitat vent (km/h) Precipitació (mm)
Hora UTC Aire Humitat Pressió Vel. Dir. Vel. Max Dir. Intent. màx 5 min.
00:05 -3.4 90.0 1027.1 0.0 NW 0.0 0.0
00:10 -3.4 90.0 1027.1 0.0 NW 0.0 0.0
00:10 -3.4 90.0 1027.2 0.0 NW 0.0 0.0
00:20 -3.5 90.0 1027.3 0.0 NW 0.0 0.0
00:25 -3.6 90.0 1027.0 0.0 NW 0.0 0.0
00:30 -3.6 90.0 1027.1 0.0 NW 0.0 0.0
00:35 -3.6 90.0 1026.9 0.0 NW 0.0 0.0
00:40 -3.7 90.0 1026.9 0.0 NW 0.0 0.0
00:45 -3.7 90.0 1026.8 0.0 NW 0.0 0.0
00:50 -3.8 90.0 1026.9 0.0 NW 0.0 0.0
00:55 -3.8 90.0 1026.7 0.0 NW 0.0 0.0
01:00 -3.8 90.0 1026.6 0.0 NW 0.0 0.0
01:05 -3.9 90.0 1026.7 0.0 NW 0.0 0.0
01:10 -3.9 90.0 1026.6 0.0 NW 0.0 0.0
01:15 -4.0 90.0 1026.6 0.0 NW 0.0 0.0
01:20 -4.1 90.0 1026.6 0.0 NW 0.0 0.0
01:25 -4.2 90.0 1026.5 0.0 NW 0.0 0.0
01:30 -4.2 90.0 1026.5 0.0 NW 0.0 0.0
01:35 -4.1 90.0 1026.5 0.0 NW 0.0 0.0
01:40 -4.2 90.0 1026.5 0.0 NW 0.0 0.0
01:45 -4.2 90.0 1026.4 0.0 NW 0.0 0.0
01:50 -4.3 90.0 1026.3 0.0 NW 0.0 0.0
01:55 -4.3 90.0 1026.4 0.0 NW 0.0 0.0
02:00 -4.3 90.0 1026.3 0.0 NW 0.0 0.0
02:05 -4.4 90.0 1026.4 0.0 NW 0.0 0.0
02:10 -4.4 90.0 1026.3 0.0 NW 0.0 0.0
02:15 -4.4 90.0 1026.2 0.0 NW 0.0 0.0
02:20 -4.5 90.0 1026.3 0.0 NW 0.0 0.0
02:25 -4.6 90.0 1026.3 0.0 NW 0.0 0.0
02:30 -4.6 90.0 1026.3 0.0 NW 0.0 0.0
02:35 -4.6 90.0 1026.3 0.0 NW 0.0 0.0
02:40 -4.7 90.0 1026.3 0.0 NW 0.0 0.0
02:45 -4.8 90.0 1026.1 0.0 NW 0.0 0.0
02:50 -4.8 90.0 1026.1 0.0 NW 0.0 0.0
02:55 -4.8 90.0 1026.2 0.0 NW 0.0 0.0
03:00 -4.8 90.0 1026.1 0.0 NW 0.0 0.0
03:05 -4.9 90.0 1026.0 0.0 NW 0.0 0.0
03:10 -4.9 90.0 1026.1 0.0 NW 0.0 0.0
03:15 -4.9 90.0 1026.1 0.0 NW 0.0 0.0
03:20 -5.0 90.0 1026.1 0.0 NW 0.0 0.0
03:25 -5.0 91.0 1026.1 0.0 NW 0.0 0.0
03:30 -5.1 91.0 1025.9 0.0 NW 0.0 0.0
03:35 -5.0 91.0 1026.0 0.0 NW 0.0 0.0
03:40 -5.0 91.0 1025.9 0.0 NW 0.0 0.0
03:45 -5.0 91.0 1025.7 0.0 NW 0.0 0.0
03:50 -5.1 91.0 1025.9 0.0 NW 0.0 0.0
03:55 -5.1 91.0 1025.8 0.0 NW 0.0 0.0
04:00 -5.2 90.0 1025.7 0.0 NW 0.0 0.0
04:05 -5.2 90.0 1025.8 0.0 NW 0.0 0.0
04:10 -5.2 90.0 1025.6 0.0 NW 0.0 0.0
04:15 -5.3 91.0 1025.6 0.0 NW 0.0 0.0
04:20 -5.3 91.0 1025.6 0.0 NW 0.0 0.0
04:25 -5.3 91.0 1025.5 0.0 NW 0.0 0.0
04:30 -5.3 91.0 1025.5 0.0 NW 0.0 0.0
04:35 -5.2 91.0 1025.5 0.0 NW 0.0 0.0
04:40 -5.2 91.0 1025.3 0.0 NNE 0.0 0.0
04:45 -5.3 91.0 1025.4 0.0 NNE 0.0 0.0
04:50 -5.3 91.0 1025.3 0.0 NNE 0.0 0.0
04:55 -5.3 91.0 1025.3 0.0 NNE 0.0 0.0
05:00 -5.2 91.0 1025.4 0.0 NNE 0.0 0.0
05:05 -5.3 91.0 1025.2 0.0 NNE 0.0 0.0
05:10 -5.3 91.0 1025.2 0.0 NNE 0.0 0.0
05:15 -5.3 91.0 1025.2 0.0 NNE 0.0 0.0
05:20 -5.4 91.0 1025.2 0.0 NNE 0.0 0.0
05:25 -5.3 91.0 1025.2 0.0 NNE 0.0 0.0
05:30 -5.3 91.0 1025.2 0.0 NNE 0.0 0.0
05:35 -5.3 91.0 1025.2 0.0 NNE 0.0 0.0
05:40 -5.4 91.0 1025.2 0.0 NNE 0.0 0.0
05:45 -5.3 91.0 1025.2 0.0 NNE 0.0 0.0
05:50 -5.3 91.0 1025.2 0.0 NNE 0.0 0.0
05:55 -5.3 91.0 1025.2 0.0 NNE 0.0 0.0
06:00 -5.3 91.0 1025.1 0.0 NNE 0.0 0.0
06:05 -5.3 91.0 1025.3 0.0 NNE 0.0 0.0
06:10 -5.3 91.0 1025.4 0.0 NNE 0.0 0.0
06:15 -5.3 91.0 1025.5 0.0 NNE 0.0 0.0
06:20 -5.3 91.0 1025.5 0.0 NNE 0.0 0.0
06:25 -5.3 91.0 1025.7 0.0 NNE 0.0 0.0
06:30 -5.3 91.0 1025.4 0.0 NNE 1.6 0.0
06:35 -5.2 91.0 1025.5 0.0 NNE 1.6 0.0
06:40 -5.1 91.0 1025.4 0.0 ENE 1.6 0.0
06:45 -5.0 92.0 1025.4 0.0 ENE 3.2 0.0
06:50 -4.9 92.0 1025.1 0.0 ENE 3.2 0.0
06:55 -4.8 91.0 1025.2 0.0 ENE 1.6 0.0
07:00 -4.8 91.0 1025.3 0.0 ENE 1.6 0.0
07:05 -4.6 92.0 1025.5 0.0 ENE 1.6 0.0
07:10 -4.5 92.0 1025.5 0.0 SE 3.2 0.0
07:15 -4.3 92.0 1025.6 0.0 SE 3.2 0.0
07:20 -4.3 92.0 1025.4 0.0 SE 0.0 0.0
07:25 -4.1 92.0 1025.4 0.0 SE 0.0 0.0
07:25 -4.1 92.0 1025.5 0.0 SE 0.0 0.0
07:35 -3.9 92.0 1025.4 1.6 S 3.2 0.0
07:40 -3.8 92.0 1025.4 0.0 NW 3.2 0.0
07:45 -3.7 92.0 1025.4 0.0 WNW 1.6 0.0
07:50 -3.7 92.0 1025.2 0.0 WNW 1.6 0.0
07:55 -3.6 92.0 1025.2 0.0 WNW 1.6 0.0
08:00 -3.4 92.0 1025.2 0.0 WNW 0.0 0.0
08:05 -3.3 92.0 1025.3 0.0 WNW 0.0 0.0
08:10 -3.2 92.0 1025.4 0.0 WNW 0.0 0.0
08:15 -3.1 92.0 1025.3 0.0 WNW 0.0 0.0
08:20 -3.0 92.0 1025.3 0.0 WNW 0.0 0.0
08:25 -2.8 92.0 1025.3 0.0 WNW 1.6 0.0
08:30 -2.6 92.0 1025.4 0.0 WNW 1.6 0.0
08:35 -2.4 92.0 1025.3 0.0 WSW 3.2 0.0
08:40 -2.2 93.0 1025.5 0.0 WSW 3.2 0.0
08:45 -2.1 92.0 1025.6 0.0 WSW 0.0 0.0
08:50 -1.8 93.0 1025.6 0.0 WSW 0.0 0.0
08:55 -1.6 93.0 1025.6 0.0 WSW 0.0 0.0
09:00 -1.3 93.0 1025.8 0.0 N 0.0 0.0
09:05 -1.2 93.0 1025.7 0.0 WSW 1.6 0.0
09:10 -1.0 93.0 1025.8 0.0 N 1.6 0.0
09:15 -0.8 93.0 1025.8 0.0 N 0.0 0.0
09:20 -0.7 93.0 1025.7 0.0 WSW 0.0 0.0
09:25 -0.5 93.0 1025.6 0.0 NNW 0.0 0.0
09:30 -0.3 93.0 1025.5 0.0 NNW 0.0 0.0
09:35 -0.1 93.0 1025.6 0.0 NNW 0.0 0.0
09:40 0.2 93.0 1025.6 0.0 N 1.6 0.0
09:45 0.4 93.0 1025.8 0.0 N 1.6 0.0
09:50 0.6 93.0 1025.5 0.0 N 0.0 0.0
09:55 0.8 93.0 1025.7 0.0 N 1.6 0.0
10:00 1.2 93.0 1025.6 0.0 N 3.2 0.0
10:05 1.5 93.0 1025.5 0.0 N 3.2 0.0
10:10 1.9 94.0 1025.5 0.0 N 1.6 0.0
10:15 2.3 94.0 1025.4 0.0 N 3.2 0.0
10:20 2.6 94.0 1025.3 0.0 N 3.2 0.0
10:25 2.9 94.0 1025.5 1.6 N 1.6 0.0
10:30 3.3 94.0 1025.2 0.0 N 3.2 0.0
10:35 3.7 94.0 1025.3 0.0 N 3.2 0.0
10:40 4.3 94.0 1025.2 0.0 N 4.8 0.0
10:45 4.9 94.0 1025.0 0.0 N 4.8 0.0
10:50 5.3 92.0 1025.0 0.0 N 3.2 0.0
10:55 5.7 91.0 1024.9 0.0 N 1.6 0.0
11:00 6.0 90.0 1024.7 0.0 N 0.0 0.0
11:05 6.2 87.0 1024.7 0.0 N 4.8 0.0
11:10 6.3 86.0 1024.6 0.0 N 1.6 0.0
11:15 6.3 86.0 1024.6 0.0 N 0.0 0.0
11:20 6.3 86.0 1024.5 0.0 N 0.0 0.0
11:25 6.4 86.0 1024.3 0.0 N 0.0 0.0
Màxima 6.4 94.0 1027.3 1.6 N 4.8 0.0
Mínima -5.4 86.0 1024.3
Total 0.0